Weather History for Trapani, Italy

Change the Weather History Date:

Sunday, December 9, 2012

  Actual Average Record
Temperature  
Mean Temperature 50 °F -  
Max Temperature 54 °F 60 °F 69 °F (2010)
Min Temperature 46 °F 48 °F 37 °F (1998)
Degree Days  
Heating Degree Days 15    
Moisture  
Dew Point 38 °F    
Average Humidity 59    
Maximum Humidity 89    
Minimum Humidity 38    
Precipitation  
Precipitation 0.04 in 0.08 in - ()
Sea Level Pressure  
Sea Level Pressure 29.92 in    
Wind  
Wind Speed 24 mph ()    
Max Wind Speed 38 mph    
Max Gust Speed 50 mph    
Visibility 6.3 miles    
Events Rain , Thunderstorm    
Averages and records for this station are not official NWS values.
T = Trace of Precipitation, MM = Missing Value Source: Averaged Metar Reports

Daily Weather History Graph

Daily Weather History Graph

Search for Another Location

Airport:

Trip Planner

Search our weather history database for the weather conditions in past years. The results will help you decide how hot, cold, wet, or windy it might be!

Date:

Astronomy

Dec. 09, 2012 Rise Set
Actual Time 7:14 AM CET 4:50 PM CET
Civil Twilight 6:44 AM CET 5:19 PM CET
Nautical Twilight 6:12 AM CET 5:52 PM CET
Astronomical Twilight 5:40 AM CET 6:24 PM CET
Moon 2:31 AM CET (12/9) 1:43 PM CET (12/9)
Length of Visible Light 10h 35m
Length of Day
9h 36m
Waning Crescent, 21% of the Moon is Illuminated
Dec 9
Waning Crescent
Dec 13
New
Dec 20
First Quarter
Dec 28
Full
Jan 5
Last Quarter

Hourly Weather History & Observations

Time (CET) Temp. Windchill Dew Point Humidity Pressure Visibility Wind Dir Wind Speed Gust Speed Precip Events Conditions
12:05 AM 51.8 °F - 42.8 °F 71% 29.77 in 6.2 mi NW 35.7 mph 47.2 mph N/A Rain Light Rain
12:35 AM 46.4 °F 36.5 °F 33.8 °F 62% 29.83 in 6.2 mi WNW 34.5 mph 49.5 mph N/A Rain , Thunderstorm Light Thunderstorms and Rain
12:55 AM 46.4 °F 40.4 °F 42.8 °F 87% 29.80 in 6.2 mi West 13.8 mph 29.9 mph N/A Rain Light Rain
1:00 AM 46 °F - 44 °F 89% 29.83 in 6 mi West 13.8 mph - - Rain Light Rain
1:55 AM 51.8 °F - 35.6 °F 54% 29.80 in 6.2 mi NW 29.9 mph 41.4 mph N/A   Scattered Clouds
2:55 AM 53.6 °F - 37.4 °F 54% 29.83 in 6.2 mi NW 29.9 mph 41.4 mph N/A Rain Light Rain
3:55 AM 51.8 °F - 33.8 °F 50% 29.80 in 6.2 mi NNW 29.9 mph 41.4 mph N/A   Scattered Clouds
4:55 AM 51.8 °F - 32.0 °F 47% 29.83 in 6.2 mi NNW 33.4 mph 47.2 mph N/A   Scattered Clouds
5:55 AM 51.8 °F - 30.2 °F 44% 29.83 in 6.2 mi NW 38.0 mph 49.5 mph N/A   Scattered Clouds
6:55 AM 51.8 °F - 33.8 °F 50% 29.86 in 6.2 mi NW 33.4 mph 46.0 mph N/A   Scattered Clouds
7:00 AM 52 °F - 34 °F 38% 29.86 in 7 mi NW 33.4 mph - -   Partly Cloudy
7:55 AM 50.0 °F - 42.8 °F 76% 29.86 in 6.2 mi North 26.5 mph 38.0 mph N/A Rain Rain
8:55 AM 48.2 °F - 42.8 °F 82% 29.89 in 6.2 mi NW 27.6 mph 39.1 mph N/A Rain Rain
9:55 AM 51.8 °F - 41.0 °F 67% 29.92 in 6.2 mi NNW 26.5 mph 38.0 mph N/A Rain Rain
10:55 AM 50.0 °F - 41.0 °F 71% 29.92 in 6.2 mi NW 25.3 mph 36.8 mph N/A Rain Rain
11:55 AM 51.8 °F - 37.4 °F 58% 29.92 in 6.2 mi NNW 25.3 mph 36.8 mph N/A   Scattered Clouds
12:55 PM 50.0 °F - 41.0 °F 71% 29.92 in 6.2 mi NNW 18.4 mph 29.9 mph N/A Rain Rain
1:00 PM 50 °F - 42 °F 65% 29.93 in 7 mi NNW 18.4 mph - - Rain Light Rain
1:21 PM 53.6 °F - 39.2 °F 58% 29.92 in 6.2 mi NW 31.1 mph 42.6 mph N/A Rain Rain
1:55 PM 53.6 °F - 39.2 °F 58% 29.92 in 6.2 mi NNW 31.1 mph 42.6 mph N/A   Scattered Clouds
2:55 PM 51.8 °F - 37.4 °F 58% 29.95 in 6.2 mi NNW 28.8 mph 40.3 mph N/A   Scattered Clouds
3:55 PM 53.6 °F - 41.0 °F 62% 29.98 in 6.2 mi NNW 25.3 mph 36.8 mph N/A   Scattered Clouds
4:55 PM 53.6 °F - 37.4 °F 54% 29.98 in 6.2 mi NNW 26.5 mph 38.0 mph N/A   Mostly Cloudy
5:55 PM 51.8 °F - 39.2 °F 62% 30.01 in 6.2 mi NNW 24.2 mph 35.7 mph N/A   Scattered Clouds
6:55 PM 53.6 °F - 37.4 °F 54% 30.04 in 6.2 mi NNW 23.0 mph 34.5 mph N/A   Scattered Clouds
7:00 PM 53 °F - 38 °F 46% 30.04 in 7 mi NNW 23.0 mph - -   Partly Cloudy
7:55 PM 53.6 °F - 35.6 °F 51% 30.04 in 6.2 mi NNW 21.9 mph 33.4 mph N/A   Scattered Clouds
8:55 PM 53.6 °F - 35.6 °F 51% 30.06 in 6.2 mi North 19.6 mph 31.1 mph N/A   Scattered Clouds
9:55 PM 53.6 °F - 33.8 °F 47% 30.06 in 6.2 mi NNW 20.7 mph 32.2 mph N/A   Scattered Clouds
10:55 PM 53.6 °F - 35.6 °F 51% 30.09 in 6.2 mi NNW 18.4 mph 29.9 mph N/A   Partly Cloudy
11:55 PM 53.6 °F - 33.8 °F 47% 30.09 in 6.2 mi NNW 17.3 mph 28.8 mph N/A   Partly Cloudy